Showing default

QIANFAN-20, 61553

Orbit data source: Space-Track

QIANFAN-20, 61553 is a Chinese payload satellite in LEO that was launched on Tue, 15 Oct 2024 UTC via a CHANG ZHENG 6A launch vehicle from the Taiyaun Space Center, China (TSC). Payloads include a variety of satellites, spacecraft, and rockets equipped with specific instruments for various scientific and technological missions. These include communications satellites like Starlink; space stations such as the ISS; scientific satellites like the Hubble; Earth observation satellites from companies like Planet Labs, Umbra, and HawkEye 360; GPS; miniature CubeSats for education and research; and military/defense satellites.

Loading next visibility...
QIANFAN-20 details
Identifier
61553, 2024-185B
Orbit
LEO
Last TLE update12 hours ago
Origin
Flag of CNYUANX (CN / PRC)
ManufacturerGESIH/SECM
MissionOperational Commercial Communications
Bus & MotorQIANFAN, Unknown motor
Mass300 kg wet, ~300 kg dry
Launch date (UTC)
2024-10-15 (4 months ago)
Launch vehicle
CHANG ZHENG 6A
Launch site
Taiyaun Space Center, China (TSC)
Object type
Payload
Rocket body
Debris
Shape & HBRBox + 1 Pan, 10 m
Radar Cross Section13.200 m², Large (>1 m²)

Expand to show TLE details & history

TLE from 12 hours ago
0 QIANFAN-20
1 61553U 24185B   25035.76908671  .00001054  00000-0  60732-3 0  9990
2 61553  88.9892 113.5247 0004863 241.9439 118.1253 14.08443932 25716
Epoch: 2025-02-04T18:27Z
Definitive object data (Epoch: 2025-02-04T18:27:29.091Z)
Latitude-0.00005°
Longitude61.48386°
Altitude869.4 km
Speed7.417 km/s
True Right ascension07h 34m 05s
True Declination0° 00' 00"
Sunlit
Object was in full shadow at TLE epoch
Visualization TLE readout
Latitude70.10032°
Longitude-121.35355°
Altitude879.194 km
Speed7.418 km/s
Apparent Right ascension20h 25m 37s
Apparent Declination20° 40' 26"
Sunlit
Object is in daylight
Visualization observer readout
Local Sidereal Time08:57:06
Azimuth8.422° NNE
Elevation-28.966°
Doppler factor1
Orbital elements
Apogee altitude865.19 km
Perigee altitude858.149 km
Semi-major axis7,239.806 km
Eccentricity0.0004863
Inclination88.9892°
RAAN113.5247°
Arg. of periapsis241.9439°
True anomaly118.17443°
Mean anomaly118.1253°
Eccentric anomaly118.14987°
Mean motion3.52333 °/min
BSTAR0.00060732
Orbital period102.18 mins
Loading maneuver chart data...
Loading historical data...
Loading historical data...
Loading historical data...
Loading historical data...
Loading historical data...
Loading historical data...
Loading historical data...

QIANFAN-20 Visibility forecast

Observer location: undefined°, undefined

Span
Click to sort rows by Start time (UTC) header in descending order
Start Az.
Max El. time (UTC)
Max El. Az.
Max El.
End time (UTC)
End Az.
10 mins2025-02-05 17:11:51.309Z4.431° NNE2025-02-05 17:16:51.309Z51.206° ENE43.522°2025-02-05 17:21:51.309Z175.026° S
8 mins2025-02-06 04:41:51.309Z133.694° SE2025-02-06 04:44:51.309Z87.309° E29.881°2025-02-06 04:49:51.309Z18.636° NNE
8 mins2025-02-06 06:23:51.309Z227.763° WSW2025-02-06 06:27:51.309Z286.668° WNW25.263°2025-02-06 06:31:51.309Z334.416° NNW
|